Voltar ao catálogo

THOR ABLESTAR DEB

AtivoLEO
NORAD 649·DEBRIS·🇺🇸 United States

Lançado Jun 29, 1961 de Cape Canaveral Space Force Station

Loading…

Próximas Passagens (próximas 24 horas)

TLE

AtualizadoSource: Space-Track

Época: Sep 13, 2026, 09:00 UTC

1   649U 61015HA  26256.37552338 -.00000018  00000-0  11523-3 0  9994
2   649  66.2691 353.2050 0557835   0.7714  56.9932 12.65331808  3791

Acompanhe THOR ABLESTAR DEB em tempo real com AllMySat

Download on the App Store